Wind_Speed
34 34 34 34 33 32 32 32 31 28 26 24 22 20 19 18 17 15 14 13 12 12 12 12 12 13 13 14 14 14 15 15 15 16 16 16 15 15 15 15 15 14 14 12
33 34 35 36 35 34 34 33 32 31 29 27 24 23 22 20 18 16 15 15 14 13 13 13 13 14 14 15 15 15 15 16 16 16 17 16 16 17 16 16 16 14 13 13
33 33 34 37 36 36 36 35 33 32 30 28 27 25 23 22 21 19 17 16 16 15 15 14 15 16 16 16 16 16 17 17 17 17 17 17 16 16 16 17 15 14 14 13
34 34 35 35 36 37 36 36 35 34 32 31 28 26 25 23 22 21 19 18 17 18 18 16 17 17 18 18 17 17 18 19 19 18 18 18 17 17 16 16 15 14 14 14
36 36 36 35 35 36 36 36 35 34 33 32 30 28 26 24 23 22 22 21 20 20 20 19 19 20 20 20 19 19 19 21 20 19 19 19 17 16 16 16 16 15 14 14
37 37 37 35 35 36 36 36 35 35 34 33 31 30 28 26 25 23 23 23 22 22 22 22 22 22 22 22 22 21 21 21 21 21 20 19 17 17 17 16 16 16 15 16
38 38 38 37 36 35 36 36 35 35 35 33 32 32 30 29 28 27 26 26 26 25 25 25 25 24 24 23 24 24 24 23 22 22 22 20 18 17 17 17 17 17 17 17
38 39 39 37 37 36 36 36 36 35 35 34 34 33 32 31 30 30 29 28 28 28 28 27 27 26 25 25 25 25 24 24 24 24 24 21 19 18 18 18 18 18 18 18
39 39 38 37 37 36 36 36 36 36 35 34 34 33 33 33 33 32 32 31 30 31 30 29 28 27 26 26 26 26 26 25 26 26 25 23 21 20 20 20 20 19 19 19
38 38 38 38 37 37 37 37 36 36 35 34 33 33 34 34 34 34 33 33 33 33 32 31 30 28 27 27 27 27 28 28 26 24 23 23 22 21 21 21 21 20 20 20
38 38 38 37 37 36 36 37 37 37 36 36 34 33 34 34 34 34 34 34 33 34 32 32 32 30 29 28 28 29 28 27 25 24 23 22 22 21 22 22 22 22 22 21
37 37 37 37 36 37 37 37 37 37 36 36 35 34 34 34 34 35 34 33 33 33 34 33 32 31 30 29 29 29 28 26 24 23 22 22 21 21 22 23 23 23 23 23
36 36 36 36 36 36 36 36 35 36 36 36 35 35 35 34 34 35 35 34 34 33 34 32 29 29 29 29 28 28 27 25 23 23 23 24 23 23 24 23 23 24 24 24
35 35 36 36 35 35 35 35 35 35 35 36 35 35 34 34 35 35 35 35 34 34 34 33 30 29 29 28 27 26 26 26 26 26 25 25 25 25 25 25 24 25 25 25
34 35 35 36 36 35 34 34 35 35 35 35 35 35 36 36 35 35 35 34 34 33 33 33 31 30 30 29 28 27 28 28 29 28 27 28 28 27 26 26 26 26 26 26
33 34 34 33 34 34 34 33 34 35 36 36 36 35 35 35 34 33 34 33 33 34 34 33 32 31 31 31 30 29 29 29 29 29 29 29 28 28 28 28 28 28 28 28
33 33 32 32 33 33 34 33 33 34 35 35 34 34 33 32 32 33 33 32 33 34 34 33 32 31 31 31 31 31 30 31 31 31 31 31 30 30 30 30 30 30 30 30
32 32 32 32 32 33 34 34 34 33 33 33 34 34 34 34 34 34 33 33 33 34 34 34 33 31 31 31 32 32 32 32 33 33 33 32 32 32 31 31 32 33 33 33
30 30 30 31 32 32 32 33 33 33 32 33 34 35 34 34 34 35 34 33 33 34 34 36 35 34 34 33 34 34 33 33 34 35 35 34 33 33 33 33 34 35 35 34
27 27 27 27 29 30 30 31 32 33 33 33 33 34 35 34 33 33 34 33 33 34 35 35 35 35 35 35 35 34 35 35 35 36 36 36 34 34 34 34 35 35 34 34
26 25 25 25 26 27 29 30 31 32 32 32 31 32 31 30 31 31 32 32 32 33 34 34 34 34 35 36 36 35 36 36 37 37 37 37 36 36 36 36 35 35 34 34
24 24 25 25 26 27 28 28 29 30 30 30 31 31 30 30 31 31 32 31 31 32 32 33 33 35 36 36 36 36 37 37 37 38 37 37 36 36 36 35 35 34 34 34
23 23 23 24 24 25 26 26 26 27 28 29 30 30 29 29 29 30 30 31 31 31 31 31 32 33 33 34 35 35 36 36 36 36 36 35 35 35 35 34 33 34 34 34
21 22 22 22 21 22 24 25 26 26 27 27 28 28 28 29 29 29 29 29 29 29 29 30 30 31 31 32 32 33 34 33 34 33 34 34 34 34 34 33 33 34 34 33
19 19 19 19 19 20 21 23 24 25 26 26 27 27 28 28 28 28 28 28 28 28 28 28 28 29 30 31 31 32 32 33 33 34 34 34 34 34 33 33 32 32 32 32
17 18 18 18 18 18 19 21 23 24 26 26 27 27 27 27 27 28 27 27 27 27 27 27 28 29 29 30 30 30 31 32 33 33 34 34 34 33 32 32 32 32 32 32
16 16 17 17 17 17 18 20 21 22 23 24 24 25 25 25 25 25 26 26 27 27 27 27 28 28 28 28 29 29 30 30 31 32 32 31 31 31 31 31 31 31 31 31
Wind_Direction
229 229 230 231 233 235 239 243 247 250 253 255 255 257 259 262 266 266 266 268 280 291 297 300 305 310 313 317 320 321 320 320 321 324 324 325 325 326 324 321 320 317 317 313
231 231 231 232 233 235 238 242 246 250 253 256 257 257 258 261 263 264 266 269 275 282 287 291 296 302 307 311 312 313 314 314 314 316 318 319 320 321 321 321 317 314 313 310
233 234 234 234 234 237 239 242 245 249 252 256 258 257 259 261 264 264 266 269 270 275 279 283 290 295 299 303 304 305 307 308 308 309 312 314 315 316 318 320 315 310 313 310
233 234 236 236 237 239 242 244 246 249 251 254 256 256 255 258 262 260 259 263 269 275 279 281 286 290 291 292 294 297 300 302 303 303 305 307 309 310 314 317 313 311 312 312
235 236 238 238 239 240 242 244 246 248 251 253 254 254 254 255 259 255 256 259 264 269 273 276 281 285 285 289 291 295 297 301 299 299 302 303 303 308 312 313 312 310 309 310
237 238 239 238 240 241 243 245 246 248 250 252 253 253 253 254 255 251 253 257 261 265 271 274 280 284 285 287 290 292 294 297 299 299 298 300 301 302 306 307 306 307 307 308
238 241 241 240 241 242 244 246 247 248 250 251 252 253 252 253 254 252 253 257 261 266 270 274 278 282 285 288 290 291 291 290 293 295 296 295 298 298 299 300 301 303 305 306
238 240 242 241 242 243 244 245 246 248 250 251 253 253 251 251 250 250 254 258 262 266 268 270 273 277 280 284 286 287 289 289 289 292 296 295 294 296 296 296 298 300 302 303
239 241 242 242 243 243 244 245 246 247 249 250 251 252 253 251 251 251 252 255 260 263 264 265 268 272 275 279 285 286 288 290 289 288 292 291 290 291 294 294 295 296 299 300
241 242 242 242 243 244 244 244 245 245 245 248 250 252 252 252 251 251 251 254 256 260 263 265 267 270 273 276 281 285 287 287 287 288 289 290 287 289 291 291 293 296 298 298
243 243 243 243 244 245 245 244 244 245 246 247 248 250 251 251 250 250 252 253 256 259 260 262 264 266 271 275 279 283 286 284 284 284 287 287 285 286 290 290 292 294 297 298
244 244 244 244 244 245 245 244 244 245 246 245 246 249 250 247 247 249 251 255 258 261 262 265 264 264 268 272 275 280 283 281 279 280 285 285 285 288 290 288 290 295 296 297
245 245 244 244 245 246 246 245 245 245 245 245 246 248 249 249 249 251 252 255 257 260 262 266 264 262 266 270 273 276 277 277 279 280 281 281 284 287 290 291 291 293 293 295
244 244 243 243 245 246 246 245 245 246 246 245 245 246 248 249 251 252 253 254 256 258 260 264 264 263 265 268 270 272 272 274 275 277 277 279 281 284 285 286 288 289 290 292
243 243 243 244 245 246 246 245 244 245 246 246 246 247 248 250 252 253 253 255 256 257 260 262 265 264 266 267 269 269 272 274 274 276 278 279 280 282 283 284 285 288 289 290
243 242 244 245 246 246 245 245 245 245 245 245 246 248 250 250 250 252 254 257 256 256 260 262 264 265 266 265 267 268 271 274 274 275 277 281 282 283 283 284 285 286 289 289
243 243 243 243 245 245 245 245 245 246 247 246 246 247 248 250 252 254 255 256 258 258 259 262 264 265 266 267 268 268 269 271 273 273 275 277 279 281 284 285 284 285 286 287
243 245 244 244 243 244 245 246 246 246 246 246 247 248 250 252 252 254 256 257 258 258 258 260 263 265 266 267 268 269 269 271 273 274 275 276 279 281 283 284 284 286 288 287
243 245 245 245 244 244 244 244 245 244 245 246 247 249 253 254 253 255 257 259 259 259 260 262 262 264 267 269 270 272 271 272 272 274 275 276 277 278 280 282 283 285 286 287
244 244 245 246 246 245 244 245 246 246 248 248 248 249 252 254 255 256 258 260 261 261 261 262 263 264 266 268 271 272 272 272 273 274 275 276 277 278 280 282 283 284 284 286
244 244 244 247 249 248 247 246 246 248 249 247 248 250 253 255 256 257 259 261 262 262 262 261 262 263 264 266 268 271 272 273 273 273 277 278 277 278 279 280 281 281 282 283
241 244 245 246 250 249 245 244 246 247 248 248 250 254 256 257 258 258 259 262 263 264 264 263 263 264 265 265 267 270 272 273 274 277 277 277 278 279 280 280 279 279 280 282
242 244 246 248 250 247 243 244 247 247 248 250 252 255 257 258 258 258 259 261 262 265 267 267 266 266 266 266 267 268 269 271 273 275 276 278 279 280 279 278 278 278 279 280
243 246 247 247 248 245 245 245 248 249 250 251 253 255 256 257 257 258 259 260 261 263 265 266 266 266 267 267 268 269 270 271 272 273 275 276 278 279 278 278 279 278 277 278
242 242 246 245 247 246 245 246 248 250 252 253 254 254 255 256 257 258 259 260 262 263 265 265 265 266 267 268 269 269 269 270 271 272 273 275 276 277 277 277 278 278 277 278
244 245 244 246 248 250 250 250 250 252 253 254 255 256 257 258 258 258 259 260 262 262 264 266 267 267 268 269 269 269 269 270 271 271 273 274 274 274 275 276 276 277 277 277
241 243 245 247 249 252 254 253 253 255 256 255 256 257 258 258 258 259 260 261 261 262 264 267 269 269 269 270 271 271 271 270 271 272 273 274 274 274 275 276 276 275 276 278
Height
5865 5869 5873 5876 5880 5883 5886 5889 5892 5895 5897 5900 5902 5904 5905 5906 5907 5907 5907 5908 5908 5907 5907 5906 5906 5905 5903 5902 5901 5899 5897 5895 5894 5892 5890 5887 5885 5883 5881 5879 5876 5875 5873 5871
5858 5862 5866 5870 5874 5877 5880 5883 5886 5889 5892 5894 5896 5898 5900 5901 5902 5903 5904 5904 5904 5904 5904 5903 5902 5901 5900 5899 5898 5896 5895 5893 5891 5890 5887 5885 5883 5881 5878 5876 5873 5872 5871 5869
5851 5855 5859 5862 5867 5870 5874 5876 5880 5882 5886 5888 5890 5892 5894 5896 5897 5898 5899 5900 5900 5900 5900 5899 5899 5898 5897 5896 5894 5893 5892 5890 5888 5886 5884 5882 5880 5878 5875 5873 5870 5869 5868 5866
5844 5848 5851 5858 5860 5863 5867 5870 5873 5876 5879 5882 5884 5886 5888 5890 5891 5893 5894 5895 5895 5895 5895 5895 5894 5894 5892 5891 5890 5889 5887 5886 5884 5882 5881 5879 5877 5874 5872 5870 5868 5866 5865 5863
5836 5839 5844 5849 5852 5856 5859 5862 5866 5869 5872 5874 5877 5879 5881 5884 5885 5887 5888 5889 5890 5890 5890 5890 5889 5888 5887 5885 5884 5884 5883 5881 5879 5877 5876 5874 5873 5871 5868 5866 5865 5863 5861 5860
5828 5832 5836 5842 5845 5848 5852 5854 5859 5861 5864 5867 5869 5872 5875 5877 5878 5880 5882 5883 5883 5884 5884 5884 5884 5883 5882 5880 5879 5879 5878 5876 5875 5873 5871 5870 5868 5866 5865 5863 5861 5860 5858 5856
5820 5823 5828 5833 5837 5840 5844 5848 5851 5853 5856 5859 5862 5864 5868 5869 5871 5873 5875 5876 5877 5877 5878 5878 5878 5877 5876 5875 5874 5873 5872 5871 5869 5868 5866 5865 5863 5862 5861 5859 5858 5856 5854 5852
5812 5815 5822 5825 5828 5832 5835 5839 5841 5845 5848 5851 5853 5856 5859 5861 5863 5865 5867 5868 5870 5870 5871 5871 5871 5871 5871 5870 5869 5867 5865 5864 5863 5862 5860 5858 5858 5857 5856 5855 5853 5851 5850 5848
5804 5809 5813 5816 5819 5823 5826 5829 5833 5836 5839 5842 5845 5847 5850 5852 5854 5857 5859 5860 5862 5863 5863 5864 5864 5864 5864 5863 5862 5861 5860 5858 5857 5856 5855 5853 5853 5852 5851 5850 5848 5846 5845 5843
5796 5799 5803 5807 5810 5814 5817 5821 5824 5827 5830 5833 5836 5839 5841 5843 5846 5848 5850 5852 5853 5854 5855 5856 5856 5856 5856 5856 5855 5854 5853 5852 5850 5848 5848 5847 5846 5846 5845 5844 5843 5841 5840 5838
5787 5791 5794 5798 5801 5805 5809 5812 5815 5818 5821 5824 5827 5830 5832 5834 5837 5839 5841 5843 5844 5845 5847 5848 5848 5848 5848 5848 5848 5847 5846 5845 5843 5842 5842 5840 5840 5840 5839 5838 5837 5836 5834 5832
5778 5782 5785 5789 5793 5796 5799 5802 5805 5809 5812 5815 5818 5820 5823 5825 5827 5829 5832 5833 5835 5836 5838 5838 5838 5839 5840 5840 5840 5840 5839 5838 5836 5836 5836 5835 5834 5834 5832 5832 5831 5829 5828 5826
5769 5772 5776 5779 5783 5787 5790 5793 5796 5799 5802 5806 5809 5811 5814 5816 5818 5820 5823 5825 5826 5827 5828 5828 5827 5828 5830 5831 5831 5831 5831 5831 5830 5829 5829 5829 5828 5827 5826 5825 5824 5822 5821 5819
5759 5763 5767 5770 5774 5777 5780 5784 5787 5790 5792 5796 5799 5802 5804 5807 5809 5811 5814 5815 5817 5818 5819 5819 5818 5819 5821 5822 5823 5823 5823 5823 5823 5822 5822 5821 5820 5819 5819 5818 5817 5815 5814 5812
5750 5754 5758 5762 5765 5768 5771 5774 5777 5780 5783 5786 5789 5792 5795 5798 5800 5802 5804 5806 5807 5809 5810 5810 5810 5811 5812 5814 5815 5815 5815 5815 5815 5814 5814 5813 5812 5812 5811 5810 5809 5807 5806 5804
5742 5745 5749 5753 5756 5759 5762 5765 5768 5771 5774 5777 5780 5783 5786 5788 5790 5793 5795 5796 5797 5799 5800 5801 5802 5802 5803 5805 5806 5806 5807 5806 5806 5806 5806 5805 5804 5804 5803 5802 5801 5799 5798 5796
5734 5737 5741 5744 5747 5750 5753 5756 5759 5762 5765 5768 5770 5773 5776 5778 5780 5782 5785 5786 5788 5790 5791 5792 5793 5794 5795 5796 5797 5797 5798 5798 5798 5798 5797 5797 5796 5795 5794 5793 5792 5791 5789 5788
5726 5729 5732 5735 5738 5741 5744 5747 5750 5753 5756 5758 5761 5764 5766 5769 5771 5773 5775 5776 5779 5781 5782 5783 5785 5785 5787 5788 5788 5788 5788 5788 5789 5788 5788 5787 5787 5786 5785 5784 5783 5782 5780 5778
5718 5721 5724 5727 5730 5733 5735 5738 5741 5744 5746 5749 5752 5755 5757 5759 5761 5763 5765 5766 5768 5770 5772 5773 5775 5776 5777 5778 5778 5779 5779 5779 5779 5779 5778 5778 5777 5776 5775 5774 5773 5772 5770 5768
5711 5714 5716 5718 5721 5724 5727 5729 5732 5734 5737 5740 5742 5745 5747 5749 5751 5753 5755 5756 5758 5760 5762 5763 5764 5766 5767 5767 5768 5768 5769 5769 5768 5768 5768 5767 5766 5765 5765 5764 5763 5761 5760 5759
5704 5707 5709 5711 5713 5715 5718 5720 5722 5725 5727 5730 5733 5736 5737 5739 5741 5743 5744 5746 5748 5749 5750 5752 5754 5755 5756 5757 5757 5758 5758 5758 5757 5757 5756 5756 5755 5755 5754 5753 5752 5751 5750 5748
5698 5700 5702 5704 5705 5707 5709 5711 5714 5716 5719 5721 5724 5726 5728 5730 5732 5733 5734 5736 5738 5739 5740 5742 5743 5744 5745 5746 5746 5747 5747 5747 5747 5746 5746 5745 5744 5743 5743 5742 5741 5740 5739 5738
5691 5693 5695 5696 5698 5699 5701 5703 5705 5708 5710 5713 5715 5717 5719 5721 5722 5724 5725 5727 5728 5729 5730 5731 5732 5733 5734 5735 5735 5736 5736 5736 5736 5735 5735 5735 5734 5733 5732 5731 5730 5729 5728 5727
5685 5687 5688 5690 5690 5692 5694 5697 5699 5701 5703 5705 5707 5709 5710 5712 5713 5714 5716 5717 5719 5720 5721 5722 5723 5723 5724 5724 5724 5725 5725 5725 5725 5724 5724 5724 5723 5722 5721 5720 5720 5719 5718 5717
5680 5682 5683 5684 5686 5687 5689 5691 5692 5694 5696 5697 5699 5700 5701 5703 5704 5706 5707 5708 5709 5711 5712 5713 5713 5714 5714 5714 5714 5714 5714 5714 5714 5714 5714 5713 5713 5712 5711 5710 5709 5708 5707 5706
5676 5678 5679 5681 5682 5683 5684 5685 5686 5687 5689 5690 5691 5692 5693 5694 5696 5697 5699 5700 5701 5702 5703 5704 5704 5704 5704 5704 5704 5704 5704 5704 5704 5703 5703 5703 5702 5702 5701 5700 5699 5698 5697 5696
5673 5674 5675 5677 5677 5678 5679 5680 5681 5681 5682 5683 5684 5685 5686 5687 5688 5689 5690 5691 5692 5693 5694 5695 5695 5695 5695 5695 5695 5694 5694 5694 5693 5693 5693 5692 5692 5692 5691 5690 5689 5689 5687 5686